FW0984 Weather Reports


time (UTC)temp
F
wind
direction
speed
knots
gust
knots
rain 1hr
in
rain 24hr
in
rain mn
in
humidity
%
barometer
mb
20260505041551 67 243 0.0 1.7 0.00 0.00 0.00 61 1007.7
20260505040041 67 254 0.0 1.7 0.00 0.00 0.00 60 1007.8
20260505034538 67 255 0.0 2.6 0.00 0.00 0.00 60 1007.8
20260505033037 67 250 0.0 1.7 0.00 0.00 0.00 61 1007.7
20260505031536 67 248 0.0 1.7 0.00 0.00 0.00 60 1007.7
20260505030046 67 246 0.0 0.9 0.00 0.00 0.00 60 1007.5
20260505024535 67 241 0.0 1.7 0.00 0.00 0.00 59 1007.3
20260505023034 68 248 0.0 0.0 0.00 0.00 0.00 58 1007.1
20260505021532 68 246 0.0 0.0 0.00 0.00 0.00 58 1007.0
20260505020039 68 240 0.0 0.0 0.00 0.00 0.00 57 1006.8
20260505014538 69 245 0.0 0.9 0.00 0.00 0.00 57 1006.8
20260505013037 69 259 0.0 2.6 0.00 0.00 0.00 56 1006.6
20260505011630 69 249 0.0 0.9 0.00 0.00 0.00 54 1006.5
20260505010027 70 241 0.0 0.9 0.00 0.00 0.00 53 1006.4
20260505004539 71 263 0.0 0.0 0.00 0.00 0.00 51 1006.4
20260505003048 72 214 0.0 1.7 0.00 0.00 0.00 50 1006.4
20260505001525 72 256 0.0 0.0 0.00 0.00 0.00 48 1006.5
20260505000030 73 259 0.0 2.6 0.00 0.00 0.00 47 1006.6
20260504234523 73 257 0.9 2.6 0.00 0.00 0.00 48 1006.8
20260504233023 73 258 1.7 3.5 0.00 0.00 0.00 47 1006.8
20260504231522 73 266 0.9 3.5 0.00 0.00 0.00 49 1006.7
20260504230021 72 249 1.7 4.3 0.00 0.00 0.00 52 1006.9
20260504224520 72 242 0.0 0.0 0.00 0.00 0.00 55 1007.2
20260504223020 73 250 0.0 0.0 0.00 0.00 0.00 56 1007.3
20260504221521 73 246 0.0 0.0 0.00 0.00 0.00 54 1007.2
20260504220016 74 252 0.0 0.0 0.00 0.00 0.00 56 1007.7
20260504214518 74 266 0.0 1.7 0.00 0.00 0.00 50 1007.8
20260504213022 74 319 0.0 1.7 0.00 0.00 0.00 52 1007.9
20260504211528 74 260 0.0 1.7 0.00 0.00 0.00 53 1008.1
20260504210010 74 261 0.0 0.9 0.00 0.00 0.00 52 1008.3
20260504204507 74 232 0.0 2.6 0.00 0.00 0.00 51 1008.4
20260504203006 74 259 0.9 3.5 0.00 0.00 0.00 49 1008.7
20260504201502 73 261 0.0 2.6 0.00 0.00 0.00 54 1008.8
20260504200058 72 261 0.0 2.6 0.00 0.00 0.00 56 1008.9
20260504194557 70 249 0.0 1.7 0.00 0.00 0.00 61 1009.3
20260504193100 69 249 0.0 1.7 0.00 0.00 0.00 62 1009.8
20260504191607 68 259 0.0 2.6 0.00 0.00 0.00 62 1010.1
20260504190104 68 261 0.0 2.6 0.00 0.00 0.00 60 1010.5
20260504184552 69 263 0.9 2.6 0.00 0.00 0.00 58 1010.4
20260504183046 69 260 0.9 4.3 0.00 0.00 0.00 57 1010.2
20260504181547 69 267 0.9 3.5 0.00 0.00 0.00 59 1009.8
20260504180042 69 275 0.0 4.3 0.00 0.00 0.00 58 1009.6
20260504174543 67 261 0.9 1.7 0.00 0.00 0.00 64 1009.5
20260504173036 67 252 0.0 1.7 0.00 0.00 0.00 64 1009.8
20260504171536 66 251 0.9 3.5 0.00 0.00 0.00 63 1009.5
20260504081556 51 261 0.0 1.7 0.00 0.00 0.00 63 1012.6
20260504044534 49 117 0.0 0.0 0.00 0.00 0.00 68 1014.6
20260504043032 50 172 0.0 0.0 0.00 0.00 0.00 65 1014.6